Location: Bijele Vode
(45.2833°N, 16.2000°E)
Time: 09:16:19
(UTC+00:00)

Nauka - Pass Details

Date: 03 October 2021
Orbit: 418 x 423 km, 51.6° (Epoch: 18 October)

Event Time Altitude Azimuth Distance (km) Brightness Sun altitude
Rises 18:19:23 0° 295° (WNW) 2,366 ? -19.6°
Reaches altitude 10° 18:21:34 10° 287° (WNW) 1,500 ? -20.0°
Maximum altitude 18:24:42 37° 218° (SW) 667 ? -20.6°
Enters shadow 18:25:04 36° 201° (SSW) 684 ? -20.6°
